Probability
0 0 0 0 0 0 0 0 0 0 0 0 0 0 0 0 0 0 0 0 0 0 1 4 6 6 6 4 3 1 0 0 0 0 0 1 2 2 2 1 1 1 1 1 0 1 2 2 3
0 0 0 0 0 0 0 0 0 0 0 0 0 0 0 0 0 0 0 0 0 1 2 4 6 6 6 5 4 2 1 0 0 0 0 0 1 1 1 0 0 1 2 2 1 0 1 1 2
0 0 0 0 0 0 0 0 0 0 0 0 0 0 0 0 0 0 0 0 0 1 2 4 6 6 6 6 5 3 1 0 0 0 0 0 0 0 0 0 0 0 1 2 2 1 0 1 2
0 0 0 0 0 0 0 0 0 0 0 0 0 0 0 0 0 0 0 0 0 1 2 4 5 5 6 6 5 4 2 0 0 0 0 0 0 0 0 0 0 0 0 1 2 2 1 2 3
0 0 0 0 0 0 0 0 0 0 0 0 0 0 0 0 0 1 1 1 1 2 3 3 4 4 4 4 4 4 2 1 0 0 0 0 0 0 0 0 0 0 0 0 1 1 2 3 3
0 0 0 0 0 0 0 0 0 0 0 0 0 0 0 0 0 1 2 2 2 3 3 3 3 2 2 2 2 2 2 1 0 0 0 0 0 0 0 0 0 0 0 0 0 0 1 2 1
0 0 0 0 0 0 0 0 0 0 0 0 0 0 0 0 0 0 1 1 2 4 4 4 3 1 0 1 1 1 1 1 0 0 0 0 0 0 0 0 0 0 0 0 0 0 0 0 0
0 0 0 0 0 0 0 0 0 0 0 0 0 0 0 1 1 0 0 1 3 4 4 4 3 1 0 0 0 0 0 0 0 0 0 0 0 0 0 0 0 0 0 0 0 0 0 0 0
0 0 0 0 0 0 0 0 0 0 0 0 0 0 1 2 2 1 0 2 3 4 3 3 3 2 1 0 0 0 0 0 0 0 0 0 0 0 0 0 0 0 0 0 0 0 0 0 0
0 0 0 0 0 0 0 0 0 0 0 0 0 0 1 2 2 1 0 1 2 3 3 3 3 3 2 1 0 0 0 0 0 0 0 0 0 0 0 0 0 0 0 0 0 0 0 0 0
0 0 0 0 0 0 0 0 0 0 0 0 0 0 1 1 2 2 1 0 2 3 3 3 3 3 3 1 0 0 0 0 0 0 0 0 0 0 0 0 0 0 0 0 0 0 0 0 0
0 0 0 0 0 0 0 0 0 0 0 0 0 0 0 2 3 3 1 1 2 3 3 3 3 3 3 2 1 0 0 0 0 0 0 0 0 0 0 0 0 0 0 0 0 0 0 0 0
0 0 0 0 0 0 0 0 0 0 0 0 0 0 0 1 2 3 3 3 3 3 3 3 3 3 3 2 1 0 0 1 1 0 0 0 0 0 0 0 0 0 0 0 0 0 0 0 0
0 0 0 0 0 0 0 0 0 0 0 0 0 0 0 0 1 2 3 3 3 3 3 3 3 3 3 1 0 0 0 0 1 1 0 0 0 0 0 0 0 0 0 0 0 0 0 0 0
0 0 0 0 0 0 0 0 0 0 0 0 0 0 0 0 0 1 2 3 3 3 3 3 3 3 2 1 0 0 0 0 0 0 0 0 0 0 0 0 0 0 0 0 0 0 0 0 0
0 0 0 0 0 0 0 0 0 0 0 0 0 0 0 0 0 0 1 3 3 3 3 3 3 3 2 1 0 0 0 0 0 0 0 0 0 0 0 0 0 0 0 0 0 0 0 0 0
0 0 0 0 0 0 0 0 0 0 0 0 0 0 0 0 0 0 1 2 3 3 3 3 3 2 1 0 0 0 0 0 0 0 0 0 0 0 0 0 0 0 0 0 0 0 0 0 0
0 0 0 0 0 0 0 0 0 0 0 0 0 0 0 0 0 0 1 2 3 3 3 3 1 1 0 0 0 0 0 0 0 0 0 0 0 0 0 0 0 0 0 0 0 0 0 0 0
0 0 0 0 0 0 0 0 0 0 0 0 0 0 0 0 0 0 0 1 2 3 3 2 1 0 0 0 0 0 0 0 0 0 0 0 0 0 0 0 0 0 0 0 0 0 0 0 0
0 0 0 0 0 0 0 0 0 0 0 0 0 0 0 0 0 0 0 0 1 1 2 2 1 0 0 0 0 0 0 0 0 0 0 0 0 0 0 0 0 0 0 0 0 0 0 0 0
0 0 0 0 0 0 0 0 0 0 0 0 0 0 0 0 0 0 0 0 0 0 1 1 1 0 0 0 0 0 0 0 0 0 0 0 0 0 0 0 0 0 0 0 0 0 0 0 0
0 0 0 0 0 0 0 0 0 0 0 0 0 0 0 0 0 0 0 0 0 0 0 0 0 0 0 0 0 0 0 0 0 0 0 0 0 0 0 0 0 0 0 0 0 0 0 0 0
0 0 0 0 0 0 0 0 0 0 0 0 0 0 0 0 0 0 0 0 0 0 0 0 0 0 0 0 0 0 0 0 0 0 0 0 0 0 0 0 0 0 0 0 0 0 0 0 0
0 0 0 0 0 0 0 0 0 0 0 0 0 0 0 0 0 0 0 0 0 0 0 0 0 0 0 0 0 0 0 0 0 1 1 1 1 0 0 0 0 0 0 0 0 0 0 0 0
0 0 0 0 0 0 0 0 0 0 0 0 0 0 0 0 0 0 0 0 0 0 0 0 0 0 0 0 0 0 0 0 0 1 2 2 2 1 1 0 0 0 0 0 0 0 0 0 0
0 0 0 0 0 0 0 0 0 0 0 0 0 0 0 0 0 0 0 0 0 0 0 0 0 0 0 0 0 0 0 0 0 1 3 3 3 2 1 0 0 0 0 0 0 0 0 0 0
0 0 0 0 0 0 0 0 0 0 0 0 0 0 0 0 0 0 0 0 0 0 0 0 0 0 0 0 0 0 0 0 0 1 2 3 3 2 1 1 0 0 0 0 0 0 0 0 0
0 0 0 0 0 0 0 0 0 0 0 0 0 0 0 0 0 0 0 0 0 0 0 0 0 0 0 0 0 0 0 0 0 0 1 3 3 3 2 2 1 0 0 0 0 0 0 0 0
0 0 0 0 0 0 0 0 0 0 0 0 0 0 0 0 0 0 0 0 0 0 0 0 0 0 0 0 0 0 0 0 0 0 1 2 3 3 3 3 2 1 0 0 0 0 0 0 0
0 0 0 0 0 0 0 0 0 0 0 0 0 0 0 0 0 0 0 0 0 0 0 0 0 0 0 0 0 0 0 0 0 0 0 1 3 3 3 3 3 2 1 0 0 0 0 0 0
Wind_Speed
12 10 6 3 3 5 6 4 1 2 3 5 6 5 5 6 5 6 3 5 5 7 8 6 7 8 8 8 7 7 7 7 7 7 7 7 7 7 7 7 7 7 7 8 8 9 9 9 9
9 7 4 3 4 6 4 4 3 3 4 4 4 3 3 6 6 6 4 4 5 7 7 6 7 8 8 8 7 7 7 6 6 7 6 6 7 7 7 7 7 7 7 8 8 8 8 7 8
10 6 4 4 5 5 1 3 5 6 5 3 2 3 4 5 5 4 4 3 5 7 7 7 8 8 8 7 7 7 6 6 6 6 6 6 6 6 7 7 7 7 7 7 7 7 7 7 7
4 3 4 5 7 4 1 3 5 4 3 2 3 3 5 5 4 4 4 4 6 7 7 7 8 8 7 7 7 7 7 6 6 6 6 6 6 6 6 7 7 7 7 7 6 6 6 6 6
3 4 5 6 7 3 1 2 1 2 2 3 2 2 5 5 7 6 4 4 5 6 6 7 8 7 7 7 7 6 7 7 7 7 6 6 6 6 6 6 7 7 7 6 6 6 5 5 5
4 4 5 7 6 3 1 1 1 1 2 1 1 2 5 5 6 5 5 4 5 6 6 6 7 7 7 7 7 7 7 6 6 6 6 6 6 6 6 6 6 6 6 6 6 5 5 5 5
4 4 7 8 5 3 1 1 1 1 1 0 1 2 5 5 5 5 5 5 5 6 6 5 5 5 6 6 7 6 6 6 5 6 6 6 6 6 6 6 5 5 5 5 5 5 5 4 5
3 4 6 6 5 2 2 1 1 2 1 2 2 1 4 5 5 5 5 5 5 5 5 4 4 4 4 4 5 5 5 5 5 6 6 5 5 5 5 5 5 5 4 4 4 4 4 4 4
3 4 5 4 3 1 3 1 2 2 2 2 3 4 6 8 6 5 4 4 4 4 4 4 3 3 2 3 3 4 4 5 5 4 4 4 2 2 2 4 5 4 4 4 4 4 4 4 3
2 3 4 3 3 2 2 1 1 1 1 0 2 4 7 7 5 5 4 3 3 3 3 3 3 2 2 2 2 2 2 2 2 2 2 1 1 2 3 4 4 4 4 3 3 4 3 2 1
2 3 3 3 5 3 1 1 1 1 2 1 1 3 5 5 4 3 3 3 2 3 3 2 2 2 2 1 1 1 1 1 1 2 2 2 2 2 2 1 2 2 2 2 2 2 1 1 1
2 2 2 2 3 2 1 1 2 3 2 2 2 3 4 4 3 3 2 2 2 3 3 2 2 2 2 2 1 1 1 1 1 1 2 2 1 1 1 1 1 1 1 1 1 1 2 2 2
4 3 2 1 1 1 2 3 2 3 2 0 1 2 3 3 2 2 1 2 2 2 3 2 2 2 2 2 1 1 1 1 1 1 2 2 1 1 1 1 1 1 1 1 1 1 1 2 2
1 2 3 3 3 3 3 4 4 5 3 2 3 3 3 2 2 1 1 1 1 2 2 2 2 2 2 2 1 1 0 1 1 2 2 2 1 1 1 1 1 1 1 1 1 1 1 1 1
2 3 5 5 5 3 3 5 7 5 4 4 3 3 3 3 2 2 1 1 1 2 2 2 2 2 2 2 1 1 1 1 1 1 2 2 2 1 1 1 1 1 1 1 1 1 1 1 1
5 5 5 4 4 3 3 7 3 3 4 4 4 3 3 3 2 2 1 1 1 2 2 1 2 2 2 1 1 1 1 1 1 1 1 2 2 2 1 1 1 1 1 1 1 1 1 1 1
5 6 6 3 3 3 5 6 3 2 4 4 4 3 3 3 2 2 2 2 2 2 2 2 2 2 2 1 1 1 1 1 1 1 1 1 1 2 2 1 1 1 1 1 1 2 1 1 1
4 5 5 5 3 4 6 8 5 3 4 5 4 4 3 3 3 2 2 2 2 2 2 2 2 2 2 2 1 1 1 1 1 1 1 2 1 1 1 1 1 1 1 1 2 2 2 1 1
5 6 7 5 2 4 8 8 6 5 5 5 4 4 4 3 2 3 2 3 3 3 2 2 1 1 1 1 1 1 1 0 1 1 2 2 1 1 1 1 1 1 1 1 1 1 1 2 2
7 8 7 4 1 4 7 10 7 6 6 5 4 3 3 3 2 2 2 3 2 2 2 2 1 1 1 1 1 1 1 1 1 1 2 2 2 1 1 1 1 1 1 1 1 1 1 1 1
6 6 5 5 5 6 6 8 6 5 4 2 2 2 2 3 3 3 3 3 3 2 2 2 2 1 1 0 1 1 1 1 1 1 0 1 1 1 1 1 1 1 0 0 1 1 1 1 1
6 3 4 5 4 4 3 5 5 5 4 4 4 3 3 2 3 3 3 3 2 2 2 2 2 1 1 1 1 2 1 1 1 0 0 0 0 0 1 1 1 1 1 1 1 1 1 1 1
3 3 4 5 5 5 5 5 5 4 5 5 5 4 3 2 2 3 3 3 3 2 2 1 1 1 1 1 1 1 1 0 0 0 0 0 0 1 1 1 1 1 1 1 1 1 1 1 1
2 3 4 4 3 6 7 6 5 3 5 4 4 4 3 2 2 2 2 3 3 2 2 2 1 1 1 1 0 1 1 1 1 0 0 0 1 1 1 1 1 1 1 1 1 1 1 1 2
2 1 1 2 4 6 3 5 5 1 1 2 3 3 3 3 2 2 2 3 2 2 2 1 1 1 1 1 1 1 1 2 2 1 1 0 0 1 1 1 1 1 1 1 1 1 2 2 2
4 3 3 3 4 2 2 6 3 2 3 3 3 3 3 3 3 3 2 2 2 2 1 1 1 1 1 1 1 1 0 1 1 1 1 1 1 1 1 1 1 1 1 1 1 1 1 1 2
3 4 2 1 2 3 5 4 1 1 2 2 1 2 3 3 3 2 2 2 2 2 1 1 1 1 1 1 0 1 1 0 0 0 0 0 0 0 0 1 1 1 2 1 1 1 1 1 2
2 1 1 3 3 5 5 5 4 4 3 2 2 2 2 2 3 2 2 2 1 1 1 1 1 1 0 0 0 0 0 0 0 0 0 0 0 1 1 1 1 1 1 2 1 1 2 2 3
3 3 3 3 3 3 4 4 1 3 3 3 2 2 2 2 2 2 1 2 2 2 1 1 1 1 0 1 1 1 0 0 0 0 0 0 0 1 1 1 1 2 2 2 2 2 2 3 3
3 4 4 4 4 4 4 5 3 4 3 2 2 2 2 2 2 2 2 2 2 1 1 1 1 1 1 1 1 1 1 1 1 1 1 1 1 1 1 1 1 2 2 2 2 3 3 3 4
Wind_Direction
299 279 260 249 239 231 236 228 222 77 50 48 38 30 40 31 33 90 101 64 80 109 121 121 101 102 99 94 89 85 88 86 84 82 79 77 74 70 66 64 62 62 63 62 61 60 60 59 60
292 283 259 236 239 234 225 201 156 93 82 71 51 38 60 74 74 93 87 74 92 109 117 117 100 100 98 95 90 87 89 88 84 81 78 75 72 68 65 62 58 55 57 60 58 58 58 56 57
273 256 251 234 234 245 249 90 102 101 96 99 82 38 39 59 72 81 83 102 102 106 113 109 101 99 98 94 89 85 85 84 82 79 77 72 68 66 66 62 57 53 53 56 59 59 56 53 52
266 235 240 243 241 242 331 70 86 108 104 100 114 95 82 55 55 74 97 106 103 102 107 108 102 101 98 93 90 86 82 80 78 75 73 71 66 61 64 61 56 52 50 51 55 59 58 56 52
245 242 232 237 241 245 37 56 110 140 143 122 124 113 96 78 80 88 83 85 93 97 105 115 100 95 93 91 88 84 81 78 76 71 66 66 63 61 65 62 57 53 49 48 51 58 56 56 52
246 242 237 233 223 205 174 358 266 194 123 91 105 125 100 102 94 93 90 81 86 96 105 117 103 93 88 86 85 79 73 74 74 69 67 66 64 63 64 59 55 52 48 47 49 49 48 47 46
258 252 252 253 235 214 148 88 273 212 136 84 341 120 119 110 96 99 97 87 85 94 102 111 115 108 95 84 80 77 73 70 69 65 65 67 66 64 58 52 50 50 50 46 44 45 42 38 39
290 275 252 252 242 234 105 94 8 6 42 32 6 111 117 116 106 104 95 85 82 87 95 103 110 114 116 107 88 79 71 65 63 62 61 63 67 63 55 52 41 43 44 40 38 34 36 36 32
283 257 254 260 258 132 93 83 44 35 69 37 33 51 95 115 116 113 102 89 84 83 91 100 103 108 112 121 109 96 82 69 68 67 58 59 72 76 65 54 45 40 37 33 34 30 32 27 23
241 249 258 323 357 35 69 38 87 166 125 195 91 87 103 116 126 128 127 127 119 108 98 96 100 94 89 99 116 119 102 93 76 73 62 34 44 54 58 66 54 45 34 30 28 31 32 20 13
230 244 285 351 21 23 26 336 332 240 246 238 138 119 125 128 135 141 146 148 135 122 103 89 94 99 91 79 103 91 92 99 83 76 62 31 42 56 62 68 57 46 28 26 21 20 9 359 12
246 298 304 334 10 348 314 295 315 286 280 32 94 136 137 141 155 162 160 152 134 122 120 110 98 95 102 95 88 93 86 82 68 59 61 56 46 36 38 46 45 47 16 8 15 355 355 360 2
237 253 286 310 343 292 289 273 272 261 257 62 107 127 153 155 168 154 130 119 116 129 133 129 118 108 100 99 77 65 88 91 88 73 50 47 52 41 33 18 33 31 21 10 357 359 2 1 347
254 255 266 257 252 251 239 253 244 238 207 194 175 157 157 156 155 140 133 143 136 132 137 137 137 126 116 106 92 68 97 91 89 85 64 43 46 44 36 25 20 17 22 2 1 354 350 342 339
251 258 257 238 225 232 255 254 226 214 200 197 178 167 148 148 143 152 150 153 156 136 127 136 137 127 121 113 106 88 76 80 78 79 74 55 45 51 53 37 12 357 6 9 3 2 354 347 347
233 238 241 215 199 194 226 253 207 182 193 203 187 177 164 158 152 150 136 123 124 122 120 117 108 119 124 111 109 96 100 90 90 82 75 61 41 41 54 46 17 358 7 7 352 352 350 333 329
224 237 243 234 194 201 226 255 234 217 214 216 200 190 180 172 169 155 134 126 115 113 115 117 117 124 128 121 106 97 89 78 74 80 71 60 47 40 46 37 12 15 18 360 351 348 332 326 326
237 248 255 248 211 233 243 254 249 229 232 228 215 202 199 196 186 162 150 138 121 103 106 113 109 120 116 115 107 90 79 75 77 72 67 62 50 45 55 39 15 16 28 5 353 339 332 326 327
286 275 271 274 256 257 254 258 253 232 233 234 222 206 202 203 153 136 139 129 118 109 110 120 119 116 123 129 138 145 174 171 99 81 66 63 46 34 55 30 15 360 7 357 348 346 333 334 347
267 267 272 283 285 269 267 264 251 233 223 218 212 207 197 186 148 140 140 129 130 131 132 134 138 145 149 178 175 165 159 144 109 83 70 54 38 26 38 45 23 346 352 3 354 2 339 315 353
262 259 272 287 301 271 276 273 222 215 204 189 186 196 191 178 177 172 168 162 153 148 148 145 152 149 163 177 134 103 94 80 65 33 28 27 35 19 21 30 36 348 5 305 307 303 299 296 303
261 273 272 280 281 263 235 280 238 201 203 200 204 203 204 186 169 160 159 162 160 155 147 150 152 134 136 133 121 131 153 179 217 225 256 27 72 357 11 25 21 6 349 340 333 344 313 287 286
272 313 274 261 261 270 235 246 260 188 216 213 203 197 186 174 164 154 154 157 149 142 145 153 139 125 126 144 161 167 176 199 96 82 103 74 57 25 14 17 5 359 340 336 335 331 326 311 289
275 295 275 250 242 252 225 218 259 206 212 193 183 180 164 142 126 124 123 124 125 121 128 125 119 112 113 143 191 177 175 158 117 91 75 2 16 5 359 355 338 313 303 297 294 287 285 288 293
240 215 272 247 227 241 199 217 246 178 115 129 150 148 139 136 133 116 106 120 126 125 126 132 145 147 149 179 221 203 193 183 179 190 195 201 326 326 300 323 318 324 309 300 292 268 266 262 272
224 225 205 221 245 271 232 231 237 107 80 63 89 121 127 140 139 131 127 118 128 135 141 149 163 152 162 189 234 179 183 187 180 183 203 210 227 248 293 307 311 312 303 302 302 278 273 270 275
212 229 273 279 294 272 243 224 222 110 99 111 114 123 121 121 127 132 133 134 131 135 149 168 159 148 177 202 236 195 186 179 148 155 182 191 233 280 261 260 270 282 293 292 277 271 274 272 270
262 273 164 200 221 251 257 231 226 189 195 173 157 149 132 126 133 135 136 130 123 130 136 128 134 140 167 168 200 223 220 194 190 159 38 3 335 317 248 247 261 271 276 278 274 279 274 275 273
192 207 208 220 239 228 260 255 63 147 164 171 175 166 151 142 142 126 115 102 99 93 91 83 82 82 49 42 43 47 31 8 164 178 213 353 336 314 285 264 258 265 268 267 261 269 275 270 275
236 218 192 201 239 234 255 265 50 70 82 90 75 66 80 103 114 119 113 102 92 89 86 95 86 74 47 42 47 43 19 3 12 2 354 347 333 311 296 289 276 272 275 271 262 264 267 265 270